Date String (YYYY-MM-DD hh:mm:ss) UTC,Instrument flags,Ambient pressure (hPa),Sample flow (lpm),Bypass flow (lpm),Sample temperature (°C),Ambient temperature (°C),ASC tube jacket temperature (°C),LED temperature (°C),Box temperature (°C),Sample RH (%),Span deviation,Mass concentration (μg/m³),Mass concentration (μg/m³),Mass concentration (μg/m³)
DateTimeUTC,F1_M11,P_M11,Q1_M11,Q2_M11,T1_M11,T2_M11,T3_M11,T4_M11,T5_M11,U1_M11,ZSPAN_M11,X2_M11,X0_M11,X1_M11
2022-11-01 04:00:00,,0823.7,5.02,0.00,30.0,28.4,00.0,38.9,31.9,08.2,0000.0,0002.24,0005.93,0001.78
2022-11-01 04:01:00,,0823.7,4.99,0.00,30.1,28.5,00.0,38.9,31.9,08.2,0000.0,0002.30,0006.81,0001.81
2022-11-01 04:02:00,,0823.7,5.01,0.00,30.1,28.5,00.0,38.9,31.9,08.2,0000.0,0002.42,0007.84,0001.83
2022-11-01 04:03:00,,0823.7,4.99,0.00,30.1,28.5,00.0,38.9,31.9,08.3,0000.0,0002.46,0008.27,0001.84
2022-11-01 04:04:00,,0823.7,5.00,0.00,30.1,28.5,00.0,38.9,31.8,08.2,0000.0,0002.56,0008.63,0001.87
2022-11-01 04:05:00,,0823.7,4.99,0.00,30.1,28.5,00.0,38.9,31.8,08.3,0000.0,0002.65,0009.29,0001.89
2022-11-01 04:06:00,,0823.7,5.02,0.00,30.1,28.4,00.0,38.9,31.8,08.6,0000.0,0002.68,0009.14,0001.90
2022-11-01 04:07:00,,0823.7,4.98,0.00,30.1,28.4,00.0,38.9,31.8,08.8,0000.0,0002.66,0009.13,0001.88
2022-11-01 04:08:00,,0823.7,5.01,0.00,30.0,28.4,00.0,38.9,31.8,08.8,0000.0,0002.58,0008.32,0001.86
2022-11-01 04:09:00,,0823.7,4.99,0.00,30.0,28.4,00.0,38.9,31.8,08.7,0000.0,0002.52,0008.07,0001.86
2022-11-01 04:10:00,,0823.7,5.02,0.00,30.0,28.4,00.0,38.9,31.7,08.4,0000.0,0002.49,0008.00,0001.85
2022-11-01 04:11:00,,0823.7,5.01,0.00,30.0,28.4,00.0,38.9,31.7,08.4,0000.0,0002.48,0007.62,0001.84
2022-11-01 04:12:00,,0823.8,4.99,0.00,30.0,28.4,00.0,38.9,31.7,08.5,0000.0,0002.41,0007.11,0001.81
2022-11-01 04:13:00,,0823.7,5.00,0.00,30.0,28.3,00.0,38.9,31.7,08.5,0000.0,0002.31,0005.72,0001.79
2022-11-01 04:14:00,,0823.7,5.00,0.00,30.0,28.3,00.0,38.9,31.7,08.7,0000.0,0002.30,0005.10,0001.79
2022-11-01 04:15:00,,0823.7,5.01,0.00,30.0,28.3,00.0,38.9,31.6,08.8,0000.0,0002.21,0004.44,0001.76
2022-11-01 04:16:00,,0823.8,4.98,0.00,30.0,28.3,00.0,38.9,31.7,08.8,0000.0,0002.15,0003.26,0001.74
2022-11-01 04:17:00,,0823.7,5.00,0.00,30.0,28.3,00.0,38.9,31.7,08.8,0000.0,0002.14,0003.36,0001.73
2022-11-01 04:18:00,,0823.7,4.99,0.00,30.0,28.3,00.0,38.9,31.8,08.7,0000.0,0002.15,0003.43,0001.73
2022-11-01 04:19:00,,0823.8,5.02,0.00,30.0,28.3,00.0,38.9,31.7,08.7,0000.0,0002.13,0003.37,0001.74
2022-11-01 04:20:00,,0823.8,4.99,0.00,30.0,28.3,00.0,38.9,31.6,08.5,0000.0,0002.17,0003.44,0001.75
2022-11-01 04:21:00,,0823.8,5.02,0.00,30.0,28.2,00.0,38.9,31.6,08.9,0000.0,0002.15,0003.42,0001.74
2022-11-01 04:22:00,,0823.8,4.98,0.00,30.0,28.2,00.0,38.9,31.6,09.0,0000.0,0002.08,0003.15,0001.73
2022-11-01 04:23:00,,0823.8,5.01,0.00,29.9,28.2,00.0,38.9,31.6,09.0,0000.0,0002.05,0003.01,0001.74
2022-11-01 04:24:00,,0823.9,5.00,0.00,29.9,28.2,00.0,38.9,31.6,09.0,0000.0,0002.04,0002.78,0001.74
2022-11-01 04:25:00,,0823.9,5.00,0.00,29.9,28.1,00.0,38.8,31.5,09.0,0000.0,0002.02,0002.73,0001.74
2022-11-01 04:26:00,,0823.9,4.99,0.00,29.9,28.1,00.0,38.8,31.6,09.1,0000.0,0002.01,0002.71,0001.75
2022-11-01 04:27:00,,0823.8,5.00,0.00,29.9,28.1,00.0,38.8,31.6,09.1,0000.0,0002.00,0002.68,0001.75
2022-11-01 04:28:00,,0823.9,5.01,0.00,29.9,28.1,00.0,38.8,31.6,09.1,0000.0,0002.00,0002.68,0001.76
2022-11-01 04:29:00,,0823.8,4.98,0.00,29.9,28.1,00.0,38.8,31.5,09.0,0000.0,0002.00,0002.62,0001.77
2022-11-01 04:30:00,,0823.8,5.02,0.00,29.9,28.1,00.0,38.8,31.6,09.1,0000.0,0002.04,0002.71,0001.78
2022-11-01 04:31:00,,0823.9,5.00,0.00,29.9,28.1,00.0,38.8,31.6,09.1,0000.0,0002.04,0002.75,0001.78
2022-11-01 04:32:00,,0823.9,5.00,0.00,29.9,28.1,00.0,38.8,31.5,09.0,0000.0,0002.04,0002.72,0001.79
2022-11-01 04:33:00,,0823.8,4.99,0.00,29.8,28.1,00.0,38.8,31.5,09.0,0000.0,0002.04,0002.72,0001.79
2022-11-01 04:34:00,,0823.8,5.01,0.00,29.8,28.1,00.0,38.8,31.6,09.0,0000.0,0002.03,0002.71,0001.78
2022-11-01 04:35:00,,0823.9,4.99,0.00,29.8,28.1,00.0,38.8,31.6,08.8,0000.0,0002.03,0002.70,0001.78
2022-11-01 04:36:00,,0823.8,4.99,0.00,29.8,28.1,00.0,38.8,31.5,08.7,0000.0,0002.04,0002.71,0001.79
2022-11-01 04:37:00,,0823.9,4.99,0.00,29.8,28.0,00.0,38.7,31.5,08.7,0000.0,0002.06,0002.83,0001.80
2022-11-01 04:38:00,,0823.9,5.01,0.00,29.8,28.1,00.0,38.7,31.6,08.7,0000.0,0002.06,0002.88,0001.80
2022-11-01 04:39:00,,0823.8,4.99,0.00,29.8,28.1,00.0,38.7,31.5,08.8,0000.0,0002.08,0003.08,0001.82
2022-11-01 04:40:00,,0823.9,5.02,0.00,29.8,28.1,00.0,38.7,31.5,08.7,0000.0,0002.07,0003.04,0001.83
2022-11-01 04:41:00,,0823.9,4.99,0.00,29.8,28.1,00.0,38.7,31.5,08.6,0000.0,0002.09,0003.23,0001.84
2022-11-01 04:42:00,,0823.9,5.00,0.00,29.8,28.1,00.0,38.7,31.5,08.8,0000.0,0002.10,0003.38,0001.84
2022-11-01 04:43:00,,0824.0,5.00,0.00,29.8,28.1,00.0,38.7,31.5,08.8,0000.0,0002.14,0003.44,0001.85
2022-11-01 04:44:00,,0823.9,5.00,0.00,29.8,28.0,00.0,38.7,31.5,08.9,0000.0,0002.14,0003.43,0001.87
2022-11-01 04:45:00,,0823.9,5.00,0.00,29.8,28.0,00.0,38.7,31.5,09.0,0000.0,0002.14,0003.44,0001.88
2022-11-01 04:46:00,,0824.0,5.00,0.00,29.8,28.0,00.0,38.7,31.4,08.5,0000.0,0002.18,0003.59,0001.89
2022-11-01 04:47:00,,0823.9,5.00,0.00,29.8,28.0,00.0,38.7,31.5,07.9,0000.0,0002.22,0003.76,0001.91
2022-11-01 04:48:00,,0823.9,5.00,0.00,29.7,28.0,00.0,38.7,31.4,07.8,0000.0,0002.27,0003.82,0001.92
2022-11-01 04:49:00,,0823.9,4.99,0.00,29.7,28.0,00.0,38.7,31.4,08.0,0000.0,0002.36,0003.95,0001.94
2022-11-01 04:50:00,,0823.9,5.00,0.00,29.7,28.0,00.0,38.7,31.4,08.3,0000.0,0002.43,0003.79,0001.95
2022-11-01 04:51:00,,0824.0,5.00,0.00,29.7,28.0,00.0,38.6,31.4,08.7,0000.0,0002.48,0003.90,0001.95
2022-11-01 04:52:00,,0824.0,5.00,0.00,29.7,28.0,00.0,38.6,31.4,09.1,0000.0,0002.45,0003.72,0001.95
2022-11-01 04:53:00,,0823.9,5.00,0.00,29.7,28.0,00.0,38.6,31.4,08.9,0000.0,0002.42,0003.49,0001.95
2022-11-01 04:54:00,,0824.0,4.99,0.00,29.7,27.9,00.0,38.6,31.4,08.5,0000.0,0002.40,0003.45,0001.94
2022-11-01 04:55:00,,0824.0,5.02,0.00,29.7,27.9,00.0,38.6,31.4,08.5,0000.0,0002.40,0003.45,0001.94
2022-11-01 04:56:00,,0824.0,4.99,0.00,29.7,27.9,00.0,38.6,31.3,08.8,0000.0,0002.44,0003.52,0001.93
2022-11-01 04:57:00,,0823.9,5.00,0.00,29.7,27.9,00.0,38.6,31.3,08.8,0000.0,0002.44,0003.52,0001.92
2022-11-01 04:58:00,,0823.9,4.99,0.00,29.7,27.9,00.0,38.6,31.3,08.9,0000.0,0002.43,0003.59,0001.90
2022-11-01 04:59:00,,0824.0,5.01,0.00,29.6,27.9,00.0,38.6,31.3,09.0,0000.0,0002.36,0003.51,0001.88
